カタログに戻る

STARLINK-33878

運用中通信VLEO
NORAD 63862·PAYLOAD·🇺🇸 United States

打ち上げ May 7, 2025 から Cape Canaveral Space Force Station

Loading…

次のパス (今後24時間)

TLE

最新Source: CelesTrak SupGP

元期: Sep 15, 2026, 02:29 UTC

1 63862C 25093AC  26258.10395833  .00013066  00000+0  47327-3 0  2588
2 63862  43.0016  88.2998 0001664 276.2154 267.7883 15.27571238    12

AllMySatでSTARLINK-33878をリアルタイム追跡

Download on the App Store